CAPE
0 0 0 0 0 0 0 0 0 0 0 38 126 154 136 219 48 9 0 3 0 0 0 0 0 0 0 0 0 0 0 0 0 0 0 0 0 0 0 0 0 0 0 0
0 0 0 0 0 0 0 0 0 0 1 17 32 0 0 45 236 344 108 16 2 18 35 0 0 0 0 0 0 0 0 0 0 0 0 0 0 0 0 0 0 0 0 0
0 0 0 0 0 0 0 0 1 0 0 0 0 0 0 6 141 421 483 386 400 370 341 161 4 0 0 0 0 0 0 0 0 0 0 0 0 0 0 0 0 0 0 0
0 0 0 0 0 0 2 0 0 0 5 0 0 0 0 0 14 7 232 580 655 658 664 560 402 0 0 0 0 0 0 0 0 0 0 0 0 0 0 0 0 0 0 0
0 0 0 0 0 0 0 0 1 12 14 0 0 16 0 0 12 27 16 0 0 11 0 0 0 0 0 0 0 0 0 0 0 0 0 0 0 0 0 0 0 0 0 0
0 0 0 0 0 0 4 27 8 2 0 0 0 45 25 25 8 33 79 8 0 0 0 0 0 0 0 0 0 1 0 0 0 0 0 0 0 0 0 0 0 0 0 0
0 0 0 0 0 0 12 32 15 7 3 0 0 72 27 63 1 24 20 21 0 0 3 0 0 0 0 0 0 0 1 0 0 0 0 0 0 0 0 0 0 0 0 0
0 0 0 0 7 39 26 39 42 20 0 0 0 38 8 0 0 5 5 13 0 0 16 2 0 0 0 0 0 0 0 0 0 0 0 0 0 0 0 0 0 0 0 0
0 0 0 0 1 18 22 52 2 3 0 1 3 1 4 0 66 67 71 0 0 5 6 11 0 0 0 0 0 2 0 0 0 0 0 0 0 0 0 0 0 0 0 0
0 0 0 0 4 3 23 1 38 5 3 0 0 0 20 3 74 42 92 0 0 3 10 0 0 0 0 0 0 40 0 0 0 0 0 0 0 0 0 0 0 0 0 0
0 0 0 0 1 2 12 46 9 2 0 0 7 0 0 0 90 12 31 5 0 0 9 59 39 10 1 1 23 0 2 0 0 0 0 0 0 0 0 0 0 0 0 0
0 0 0 0 0 0 0 21 21 4 0 0 2 53 0 68 34 0 6 5 0 0 0 30 89 62 24 34 19 0 0 80 30 0 0 0 0 0 0 0 0 0 0 0
0 0 0 0 0 0 0 0 0 0 0 23 29 0 0 24 29 11 7 8 0 0 9 9 47 74 58 48 27 22 7 85 92 51 0 0 0 0 0 0 0 0 0 0
0 0 0 0 0 0 0 0 0 4 6 16 1 3 39 60 104 53 14 0 0 0 10 10 36 38 49 127 75 53 68 55 105 0 0 0 0 0 0 0 0 0 0 0
0 0 0 0 0 0 4 0 0 0 0 0 0 0 57 136 101 21 2 0 0 0 0 25 52 38 67 151 124 95 82 2 0 0 0 0 0 0 0 0 0 0 0 0
0 0 0 0 0 3 24 0 0 0 0 0 0 39 108 195 11 8 0 0 0 0 1 15 64 134 126 151 97 22 0 0 0 0 0 0 0 0 0 0 0 0 0 0
21 55 78 35 0 3 0 0 23 99 128 122 72 154 215 223 175 64 0 0 0 2 19 42 85 127 155 227 160 27 0 0 0 0 0 0 0 0 0 0 0 0 0 0
15 36 68 99 42 6 2 69 92 115 151 164 130 224 106 172 114 0 0 0 0 6 45 90 106 144 137 91 8 0 0 0 0 0 0 0 0 0 0 0 0 0 0 0
23 95 39 44 23 2 18 59 110 65 117 95 82 143 178 52 15 70 4 7 5 175 223 93 112 78 2 0 0 0 0 0 0 0 0 0 0 0 0 0 0 0 0 0
27 3 59 7 19 21 25 115 32 1 177 18 103 131 257 145 140 188 39 108 280 306 208 116 60 11 0 0 0 0 0 0 0 0 0 0 0 0 0 0 0 0 0 0
78 106 166 73 142 141 0 89 7 133 114 87 288 338 245 218 259 110 69 60 178 324 131 28 16 11 0 0 15 0 0 0 0 0 0 0 0 0 0 0 0 0 0 0
79 142 168 94 93 69 91 262 108 136 277 303 346 321 326 230 96 129 134 106 272 248 81 0 0 1 0 0 0 0 0 0 0 0 0 0 0 0 0 0 0 0 0 0
142 98 111 103 162 100 17 115 258 282 334 323 279 279 164 135 81 73 285 377 211 183 62 0 0 0 0 0 0 0 0 0 0 0 0 0 0 0 0 0 0 0 0 0
32 81 190 134 94 53 45 36 62 81 96 161 250 228 229 105 101 118 408 283 214 92 19 1 0 0 0 0 0 0 0 0 0 0 0 0 0 0 0 0 0 0 0 0
178 129 163 131 96 23 3 2 3 8 34 12 70 137 97 301 356 248 80 130 154 54 21 0 0 0 0 0 0 0 0 0 0 0 0 0 0 0 0 0 0 0 0 0
129 240 165 75 62 16 0 1 0 0 17 22 64 124 265 300 293 58 10 98 106 45 11 0 0 0 0 0 0 0 0 0 0 0 0 0 0 0 0 0 0 0 0 0
CIN
0 0 0 0 0 0 0 0 0 0 0 -142 -128 -132 -143 -206 -365 -336 0 -331 0 0 0 0 0 0 0 0 0 0 0 0 0 0 0 0 0 0 0 0 0 0 0 0
0 0 0 0 0 0 0 0 0 -10 -65 -191 -150 0 0 -226 -226 -253 -271 -233 -74 -258 -208 -33 0 0 0 0 0 0 0 0 0 0 0 0 0 0 0 0 0 0 0 0
0 0 0 0 0 0 0 -4 -42 0 -78 0 0 0 0 -116 -239 -216 -226 -249 -230 -198 -170 -201 -191 0 0 0 0 0 0 0 0 0 0 0 0 0 0 0 0 0 0 0
0 0 0 0 0 0 -29 0 0 0 -43 -3 0 0 0 0 -99 -133 -136 -155 -150 -137 -142 -179 -212 0 0 0 0 0 0 0 0 0 0 0 0 0 0 0 0 0 0 0
0 0 0 0 0 0 0 -11 -99 -79 -67 0 0 -46 0 -2 -56 -107 -141 -11 0 -296 0 0 0 0 0 0 0 -1 0 0 0 0 0 0 0 0 0 0 0 0 0 0
0 0 0 0 0 0 -172 -95 -93 -106 0 -7 0 -90 -32 -59 -105 -110 -109 -170 0 0 0 0 0 0 0 0 0 -350 0 0 0 0 0 0 0 0 0 0 0 0 0 0
0 0 0 0 0 0 -55 -48 -18 -25 -17 0 0 -71 -45 -57 -123 -168 -168 -185 0 0 -289 0 0 0 0 0 0 0 -184 0 0 0 0 0 0 0 0 0 0 0 0 0
0 0 0 0 -37 -22 -53 -60 -24 -13 0 0 0 -12 -20 0 0 -260 -253 -236 0 0 -449 -277 0 0 0 0 0 0 0 0 0 0 0 0 0 0 0 0 0 0 0 0
0 0 0 0 -36 -73 -65 -39 -60 -22 -1 -9 -23 -3 -2 0 -88 -156 -170 0 0 -349 -434 -425 0 0 0 0 0 -34 0 0 0 0 0 0 0 0 0 0 0 0 0 0
0 0 0 0 -143 -16 -65 -86 -27 -9 -8 0 0 0 -34 -19 -63 -112 -136 0 0 -206 -357 0 0 0 0 0 0 -202 0 0 0 0 0 0 0 0 0 0 0 0 0 0
0 0 0 0 -21 -7 -94 -57 -91 -15 0 0 -27 0 -30 0 -103 -142 -156 -230 0 0 -322 -358 -334 -373 -211 -54 -283 0 -28 0 0 0 0 0 0 0 0 0 0 0 0 0
0 0 0 0 0 0 -5 -76 -69 -6 0 -1 -2 -26 0 -141 -175 0 -208 -156 0 0 0 -331 -327 -336 -330 -282 -274 0 0 -123 -104 0 0 0 0 0 0 0 0 0 0 0
0 0 0 -3 0 0 0 0 0 0 0 -35 -21 0 0 -206 -195 -214 -201 -148 0 0 -224 -300 -353 -336 -291 -268 -248 -246 -95 -151 -103 -127 0 0 0 0 0 0 0 0 0 0
0 0 0 0 0 0 0 0 0 -30 -56 -30 -19 -12 -45 -76 -104 -187 -209 0 0 0 -217 -222 -257 -297 -270 -224 -203 -200 -183 -173 -121 0 0 0 0 0 0 0 0 0 0 0
0 0 0 0 0 0 -90 0 0 0 0 0 0 0 -49 -86 -124 -171 -162 0 0 0 -21 -148 -190 -206 -214 -182 -182 -171 -165 -21 0 0 0 0 0 0 0 0 0 0 0 0
0 -1 0 -2 0 -119 -78 0 0 -1 0 0 -1 -55 -133 -170 -88 -147 0 0 0 0 -101 -112 -146 -161 -180 -161 -167 -202 0 0 0 0 0 0 0 0 0 0 0 0 0 0
-105 -77 -55 -43 0 -44 0 0 -54 -58 -88 -76 -33 -63 -118 -91 -95 -91 0 0 0 -95 -101 -90 -126 -151 -150 -141 -147 -144 0 0 0 0 0 0 0 0 0 0 0 0 0 0
-148 -124 -116 -73 -102 -63 -34 -155 -133 -88 -97 -130 -115 -94 -131 -101 -121 0 0 0 0 -46 -83 -121 -138 -156 -169 -175 -124 0 0 0 0 0 0 0 0 0 0 0 0 0 0 0
-321 -167 -147 -116 -117 -135 -96 -149 -123 -112 -61 -123 -101 -98 -98 -161 -155 -53 -168 -194 -170 -115 -136 -174 -197 -194 -41 0 0 0 0 0 0 0 0 0 0 0 0 0 0 0 0 0
-321 -24 -133 -190 -99 -81 -120 -182 -262 -85 -39 -113 -141 -105 -111 -127 -54 -65 -223 -166 -110 -143 -185 -209 -246 -252 0 0 0 0 0 0 0 0 0 0 0 0 0 0 0 0 0 0
-156 -161 -93 -117 -61 -57 0 -219 -157 -40 -31 -141 -141 -131 -154 -117 -124 -196 -204 -183 -187 -162 -219 -296 -273 -212 0 0 -118 0 0 0 0 0 0 0 0 0 0 0 0 0 0 0
-149 -112 -99 -137 -89 -61 -181 -122 -55 -96 -171 -189 -180 -188 -186 -192 -197 -155 -193 -217 -177 -215 -291 -118 0 -96 0 0 0 0 0 0 0 0 0 0 0 0 0 0 0 0 0 0
-122 -173 -119 -124 -71 -111 -212 -123 -155 -216 -185 -180 -179 -209 -247 -223 -193 -183 -136 -131 -193 -298 -315 0 0 0 0 0 0 0 0 0 0 0 0 0 0 0 0 0 0 0 0 0
-241 -294 -118 -119 -118 -121 -145 -177 -231 -243 -207 -208 -238 -238 -209 -215 -202 -183 -140 -210 -261 -344 -374 -400 0 0 0 0 0 0 0 0 0 0 0 0 0 0 0 0 0 0 0 0
-148 -210 -123 -128 -120 -115 -169 -101 -65 -83 -231 -175 -310 -274 -252 -180 -147 -158 -204 -265 -282 -315 -367 0 0 0 0 0 0 0 0 0 0 0 0 0 0 0 0 0 0 0 0 0
-182 -74 -82 -88 -116 -103 0 -43 0 0 -200 -251 -244 -215 -220 -192 -156 -185 -218 -240 -291 -277 -332 0 0 0 0 0 0 0 0 0 0 0 0 0 0 0 0 0 0 0 0 0
Wind_Speed
15 14 15 15 13 12 14 13 14 15 17 16 10 1 6 4 8 5 7 6 6 5 2 6 4 3 5 8 11 14 18 19 18 18 17 17 16 15 14 14 15 16 17 18
13 14 18 17 16 16 17 17 21 19 22 16 23 12 5 17 16 12 10 6 4 1 1 6 7 5 3 6 9 13 14 17 16 15 16 16 17 17 16 16 15 14 15 16
12 14 21 23 21 20 19 21 21 20 21 18 20 21 21 20 19 16 10 7 5 6 7 6 7 6 5 5 10 18 12 12 12 10 12 14 16 15 17 15 14 13 14 15
11 15 21 22 23 22 24 23 20 22 24 23 26 25 23 21 18 20 16 17 14 11 11 8 8 7 2 3 4 9 1 4 8 9 10 12 14 16 17 17 17 16 15 13
10 16 22 20 21 19 22 19 22 22 25 23 26 21 25 23 23 27 27 28 27 25 27 17 10 8 6 8 8 6 7 7 11 10 11 12 14 16 17 18 18 16 15 15
12 16 15 16 19 19 18 21 23 22 23 27 26 23 23 26 23 23 25 28 30 33 35 29 24 15 9 9 10 9 11 11 11 10 11 12 14 16 17 18 18 16 17 16
16 14 13 12 15 18 18 22 24 24 27 28 23 21 20 20 19 18 22 29 31 35 38 31 26 19 13 11 11 10 12 10 10 9 10 11 13 15 15 17 18 17 16 16
10 9 10 11 13 16 18 19 22 26 30 32 20 22 25 20 18 16 21 27 33 36 37 33 25 20 15 13 12 13 12 10 8 8 8 11 13 14 15 17 17 16 16 17
7 12 9 14 13 13 17 17 18 20 22 24 20 15 16 20 21 18 20 28 32 34 35 33 26 21 18 13 13 13 11 10 7 6 7 9 11 12 14 15 17 15 15 15
10 10 11 12 12 17 15 14 18 20 24 25 22 15 14 21 23 22 21 27 29 30 31 30 27 22 18 14 12 11 10 11 9 7 6 8 11 11 12 12 14 12 12 12
8 8 11 12 11 15 15 14 17 17 17 17 16 20 16 18 21 21 21 24 28 29 28 26 24 22 16 14 11 10 11 14 12 9 6 8 10 11 10 9 12 10 10 10
10 10 9 12 15 16 15 14 12 19 19 15 16 17 18 17 20 19 21 22 25 25 25 24 23 21 18 14 10 8 7 9 12 11 8 9 11 10 9 9 8 9 9 9
9 14 14 14 13 15 14 13 14 17 17 15 20 23 18 16 15 15 21 23 24 24 26 25 22 21 19 16 13 12 8 7 10 12 11 11 11 10 9 7 7 9 11 9
14 16 17 18 17 13 16 17 16 16 18 19 16 18 19 17 14 18 19 22 24 26 29 28 26 21 20 18 16 15 13 11 11 12 12 13 15 16 14 11 13 14 13 11
16 17 16 15 16 17 17 14 15 15 14 18 21 17 17 21 20 19 19 19 23 27 29 30 28 23 21 19 18 17 15 15 14 13 14 17 18 18 16 16 18 17 16 16
17 15 15 17 17 18 16 12 15 13 16 14 15 15 19 19 18 17 17 19 26 23 27 28 26 23 21 20 19 18 18 17 16 16 18 17 17 17 17 18 19 20 21 22
16 14 16 18 19 20 20 13 15 15 15 17 21 21 22 20 19 19 18 21 24 22 23 23 23 22 21 19 19 19 19 19 19 19 18 18 17 20 20 21 23 24 25 25
16 15 15 17 18 20 18 17 14 13 15 16 17 18 20 19 19 20 20 23 24 19 18 20 21 20 21 20 19 19 20 20 20 21 21 22 22 22 22 23 25 25 26 26
16 14 16 18 18 21 19 17 18 20 21 16 19 19 20 20 18 20 26 23 20 17 16 16 18 19 20 20 18 19 20 21 21 22 24 24 23 22 23 24 25 25 25 26
17 16 17 18 21 23 21 18 18 17 23 19 18 23 24 21 20 23 29 22 21 17 14 14 16 17 18 18 17 19 21 21 22 23 23 22 22 22 23 23 24 24 25 26
18 18 18 19 21 20 18 17 18 22 24 26 22 24 25 22 20 23 24 18 15 14 12 12 14 16 17 17 17 20 21 22 21 21 22 22 21 21 22 23 24 24 25 25
17 18 19 19 21 23 17 19 20 21 24 25 25 23 23 22 23 27 30 17 13 10 8 10 13 16 16 17 18 20 20 20 20 21 22 22 21 21 22 23 24 24 25 26
18 17 19 15 19 20 17 18 20 22 23 25 24 21 20 22 23 25 22 19 15 7 7 9 13 15 16 16 18 19 19 18 19 20 20 21 21 21 21 22 23 25 26 27
16 16 19 22 22 21 22 21 20 21 22 23 21 21 21 23 23 21 20 16 11 8 9 10 13 15 15 17 18 18 18 18 19 19 21 21 20 20 20 22 23 24 26 26
20 16 20 21 22 23 20 22 23 24 26 25 22 20 22 24 23 19 20 17 11 8 8 10 12 14 14 16 17 17 17 17 17 18 19 20 19 19 19 21 22 23 24 25
17 18 20 23 21 22 24 24 24 27 28 27 23 23 22 22 19 18 19 16 11 10 10 13 13 14 15 16 17 17 16 16 16 17 18 19 18 18 18 19 19 20 22 22
Wind_Direction
61 85 74 63 76 96 79 73 64 56 53 47 58 71 270 40 52 144 135 134 180 199 217 4 18 39 19 10 8 10 5 3 7 16 30 33 35 37 37 33 31 27 26 25
52 61 42 46 59 73 61 47 30 42 33 51 22 39 81 58 66 101 114 131 143 172 320 1 341 339 336 348 352 359 5 1 17 27 35 38 36 31 31 28 29 29 27 26
26 35 16 20 36 43 41 27 24 26 30 47 28 34 40 53 58 74 95 86 60 18 349 332 319 314 312 328 346 355 6 6 29 62 55 43 36 35 29 27 28 29 26 23
21 9 360 2 9 24 14 18 22 6 13 22 23 25 34 38 54 50 49 39 35 28 13 344 322 338 231 142 44 33 225 91 38 79 62 49 36 29 25 24 24 25 24 28
356 354 338 345 5 26 12 35 19 14 18 30 22 31 23 36 32 9 17 23 24 25 17 17 20 37 71 130 147 140 118 99 120 109 57 46 36 28 24 23 21 25 27 28
330 332 357 8 13 26 45 28 13 15 21 18 27 31 30 22 30 32 24 24 22 13 8 17 28 46 71 119 133 120 119 113 109 90 60 50 37 29 24 21 22 27 26 29
312 329 349 23 22 27 24 11 3 7 9 5 20 27 28 24 35 36 31 21 20 10 1 18 27 40 64 115 126 122 114 96 112 79 62 52 41 35 31 28 27 30 28 32
327 337 357 19 24 15 18 15 11 358 356 355 20 15 12 23 29 43 29 20 16 13 9 21 32 44 66 102 118 112 89 85 99 80 68 49 39 38 35 31 29 31 32 30
340 324 348 351 9 19 12 14 20 14 12 12 19 31 28 25 24 33 32 16 17 18 16 21 36 50 60 87 115 101 84 80 89 87 63 46 38 36 34 33 29 34 34 33
340 329 343 347 3 358 6 24 12 13 6 7 11 34 35 22 15 20 19 10 16 21 21 25 27 38 50 71 99 99 80 64 65 77 64 45 33 31 31 34 29 34 34 34
347 345 342 344 352 352 4 12 9 17 21 20 26 19 33 25 14 14 18 16 12 18 26 29 33 34 48 61 82 94 72 53 52 67 73 41 30 26 30 31 29 34 34 33
8 354 353 348 348 358 5 13 30 5 10 23 20 20 27 25 14 19 19 18 18 22 24 25 26 29 35 48 65 72 80 64 50 55 51 35 26 25 25 27 33 38 33 31
30 343 356 360 8 7 19 29 21 15 21 24 11 8 23 25 25 24 14 14 18 25 20 20 22 21 26 38 51 53 72 71 49 43 43 37 33 32 34 47 47 39 29 24
353 349 349 346 352 24 3 3 18 20 10 8 12 10 18 24 29 24 18 11 12 17 14 17 19 24 27 37 44 46 59 65 57 48 46 42 37 36 45 51 41 31 26 20
349 343 360 27 12 8 14 19 21 27 27 11 7 13 17 14 14 19 20 25 19 7 10 12 15 25 30 38 41 48 56 56 55 55 45 36 37 38 45 39 27 25 21 20
326 355 360 354 8 5 19 43 30 31 22 21 16 11 16 11 13 16 23 17 11 17 6 11 15 22 29 38 41 45 44 49 52 43 34 34 33 37 35 29 25 24 22 21
332 354 352 346 355 360 358 26 20 20 21 14 6 8 7 10 9 10 12 6 4 9 13 12 18 23 27 34 36 39 40 44 39 35 34 32 32 25 27 26 21 20 20 20
336 347 359 351 2 349 9 15 22 17 12 11 7 9 6 6 6 4 2 359 359 8 20 18 18 27 31 30 32 38 36 33 36 32 26 24 22 23 24 22 21 22 23 26
337 345 341 341 346 345 359 6 5 2 1 11 9 6 2 2 2 5 360 360 3 13 16 18 23 27 31 28 34 35 30 27 30 26 20 19 22 23 24 24 25 28 30 29
346 351 341 341 337 339 354 8 9 10 354 11 7 0 357 359 351 355 357 0 4 15 16 19 28 27 28 29 35 30 25 25 23 21 18 22 26 28 30 30 30 31 31 32
331 338 338 341 339 346 4 8 9 352 351 355 356 355 355 354 353 349 347 347 351 3 10 18 26 23 26 28 27 21 18 18 23 21 20 23 33 34 34 31 30 33 33 32
337 337 339 345 341 338 7 360 352 353 350 350 350 351 350 352 350 347 347 350 351 357 18 22 19 20 22 19 20 18 17 23 22 19 20 23 30 33 31 31 32 31 29 27
333 341 340 348 345 351 359 351 351 347 345 346 347 348 346 344 342 343 349 352 357 30 33 14 14 18 13 14 16 17 21 23 21 20 22 21 27 30 32 30 28 25 25 23
339 347 338 337 343 343 343 345 348 350 348 346 346 346 346 343 342 343 348 354 10 30 25 15 10 16 14 10 11 16 21 21 20 21 16 17 24 31 30 27 26 23 21 22
329 339 334 334 337 342 350 351 350 349 348 349 352 353 352 352 354 357 357 2 11 27 33 8 11 13 9 3 9 16 17 18 19 19 17 18 24 28 28 24 24 23 24 23
326 328 331 331 341 340 339 345 347 346 348 352 354 351 352 354 357 0 358 360 1 354 7 344 356 0 2 359 6 9 12 15 17 16 17 18 23 24 23 24 24 26 24 24